OPS 4682 DEB, 18538

Orbit data source: Space-Track

OPS 4682 DEB, 18538 is space debris in LEO originally from a launch on Sat, 03 Apr 1965 UTC launched from the Air Force Western Test Range (AFWTR). Debris objects in space refer to the collection of defunct objects orbiting the Earth. Examples of debris include non-operational satellites, rocket bodies, and fragments generated from explosions, collisions, or faulty payload assembly.

Loading next visibility...
Identifier
18538, 1965-027AF
Orbit
LEO
Country
Flag of USUS
Related business
Manufacturer
Unknown
Mission
Spacecraft
Bus & Motor
Unknown
Mass
Unknown
Launch date (UTC)
1965-04-03 (61 years ago)
Launch vehicle
Unknown
Launch site
Air Force Western Test Range (AFWTR)
Object type
Payload
Rocket body
Debris
Shape & HBR
Unknown shape, 0.1 m
Radar Cross Section
Small (<0.1 m²)

Expand to show TLE details & history
Last TLE update: 17 hours ago

TLE from 17 hours ago
0 OPS 4682 DEB
1 18538U 65027AF  26035.64323713  .00000055  00000-0  16864-3 0  9998
2 18538  90.2394   0.7956 0029381 150.2881  28.9995 12.95271287478509
Epoch: 2026-02-04T15:26Z
TLE epoch observation values (Epoch: 2026-02-04T15:26:15.688Z)
Latitude
0.4391°
Longitude
174.42518°
Altitude
1,263.822 km
Speed
7.233 km/s
True Right ascension
12h 03m 11s
True Declination
0° 26' 12"
Sunlit
Object was in full shadow at epoch
Visualization orbit readout
Latitude
Unknown
Longitude
Unknown
Altitude
Unknown
Speed
Unknown
Apparent Right ascension
Unknown
Apparent Declination
Unknown
Sunlit
N/A
Visualization observer readout
Local Sidereal Time
10:11:02
Azimuth
Unknown
Elevation
Unknown
Doppler factor
Unknown
Orbital elements
Apogee altitude
1,300.298 km
Perigee altitude
1,255.31 km
Semi-major axis
7,655.941 km
Eccentricity
0.00294
Inclination
90.2394°
RAAN
0.7956°
Arg. of periapsis
150.2881°
True anomaly
29.16325°
Mean anomaly
28.9995°
Eccentric anomaly
29.08132°
Mean motion
3.24 °/min
Orbital period
111.11 mins
BSTAR
0.00016864
Loading maneuver chart data...
Computing Atmospheric mass density...
Loading historical data...
Loading historical data...
Loading historical data...
Loading historical data...
Loading historical data...
Loading historical data...
Loading historical data...

Documentation

Showing up to 5 results
|